Time,TemperatureF,DewpointF,PressureIn,WindDirection,WindDirectionDegrees,WindSpeedMPH,WindSpeedGustMPH,Humidity,HourlyPrecipIn,Conditions,Clouds,dailyrainin,SolarRadiationWatts/m^2,SoftwareType,DateUTC
2013-09-22 00:02:00,61.1,59.3,30.30,WSW,244,0.0,0.0,94,0.00,,,0.00,0.0,WUHU216DAVISVP2,2013-09-21 23:02:00,
2013-09-22 00:07:00,61.0,59.2,30.30,WSW,244,0.0,0.0,94,0.00,,,0.00,0.0,WUHU216DAVISVP2,2013-09-21 23:07:00,
2013-09-22 00:12:00,60.9,59.1,30.29,WSW,244,0.0,0.0,94,0.00,,,0.00,0.0,WUHU216DAVISVP2,2013-09-21 23:12:00,
2013-09-22 00:17:00,60.9,59.1,30.30,WSW,244,0.0,0.0,94,0.00,,,0.00,0.0,WUHU216DAVISVP2,2013-09-21 23:17:00,
2013-09-22 00:22:00,60.8,59.0,30.30,WSW,244,0.0,0.0,94,0.00,,,0.00,0.0,WUHU216DAVISVP2,2013-09-21 23:22:00,
2013-09-22 00:27:00,60.7,58.9,30.30,WSW,244,0.0,0.0,94,0.00,,,0.00,0.0,WUHU216DAVISVP2,2013-09-21 23:27:00,
2013-09-22 00:32:00,60.6,58.8,30.30,WSW,244,0.0,0.0,94,0.00,,,0.00,0.0,WUHU216DAVISVP2,2013-09-21 23:32:00,
2013-09-22 00:37:00,60.5,58.7,30.30,WSW,244,0.0,0.0,94,0.00,,,0.00,0.0,WUHU216DAVISVP2,2013-09-21 23:37:00,
2013-09-22 00:42:00,60.4,58.6,30.29,WSW,244,0.0,0.0,94,0.00,,,0.00,0.0,WUHU216DAVISVP2,2013-09-21 23:42:00,
2013-09-22 00:47:00,60.3,58.8,30.30,WSW,244,0.0,0.0,95,0.00,,,0.00,0.0,WUHU216DAVISVP2,2013-09-21 23:47:00,
2013-09-22 00:52:00,60.2,58.7,30.30,WSW,244,0.0,0.0,95,0.00,,,0.00,0.0,WUHU216DAVISVP2,2013-09-21 23:52:00,
2013-09-22 00:57:00,60.0,58.5,30.30,WSW,244,0.0,0.0,95,0.00,,,0.00,0.0,WUHU216DAVISVP2,2013-09-21 23:57:00,
2013-09-22 01:02:00,59.9,58.4,30.30,WSW,244,0.0,0.0,95,0.00,,,0.00,0.0,WUHU216DAVISVP2,2013-09-22 00:02:00,
2013-09-22 01:07:00,59.9,58.4,30.30,WSW,244,0.0,0.0,95,0.00,,,0.00,0.0,WUHU216DAVISVP2,2013-09-22 00:07:00,
2013-09-22 01:12:00,59.9,58.4,30.30,WSW,244,0.0,0.0,95,0.00,,,0.00,0.0,WUHU216DAVISVP2,2013-09-22 00:12:00,
2013-09-22 01:17:00,59.9,58.7,30.30,WSW,244,0.0,0.0,96,0.00,,,0.00,0.0,WUHU216DAVISVP2,2013-09-22 00:17:00,
2013-09-22 01:22:00,59.9,58.7,30.30,WSW,244,0.0,0.0,96,0.00,,,0.00,0.0,WUHU216DAVISVP2,2013-09-22 00:22:00,
2013-09-22 01:27:00,60.0,58.8,30.30,WSW,244,0.0,0.0,96,0.00,,,0.00,0.0,WUHU216DAVISVP2,2013-09-22 00:27:00,
2013-09-22 01:32:00,60.0,58.8,30.30,WSW,244,0.0,0.0,96,0.00,,,0.00,0.0,WUHU216DAVISVP2,2013-09-22 00:32:00,
2013-09-22 01:37:00,60.1,58.9,30.31,WSW,240,0.0,0.0,96,0.00,,,0.00,0.0,WUHU216DAVISVP2,2013-09-22 00:37:00,
2013-09-22 01:42:00,60.2,59.0,30.30,WSW,243,0.0,1.0,96,0.00,,,0.00,0.0,WUHU216DAVISVP2,2013-09-22 00:42:00,
2013-09-22 01:47:00,60.3,59.1,30.30,WSW,243,0.0,1.0,96,0.00,,,0.00,0.0,WUHU216DAVISVP2,2013-09-22 00:47:00,
2013-09-22 01:52:00,60.3,59.1,30.30,WSW,243,0.0,1.0,96,0.00,,,0.00,0.0,WUHU216DAVISVP2,2013-09-22 00:52:00,
2013-09-22 01:57:00,60.4,59.2,30.30,WSW,243,0.0,1.0,96,0.00,,,0.00,0.0,WUHU216DAVISVP2,2013-09-22 00:57:00,
2013-09-22 02:02:00,60.4,59.2,30.31,West,271,0.0,2.0,96,0.00,,,0.00,0.0,WUHU216DAVISVP2,2013-09-22 01:02:00,
2013-09-22 02:07:00,60.4,59.2,30.31,SSW,199,0.0,2.0,96,0.00,,,0.00,0.0,WUHU216DAVISVP2,2013-09-22 01:07:00,
2013-09-22 02:12:00,60.4,59.2,30.31,WSW,240,0.0,2.0,96,0.00,,,0.00,0.0,WUHU216DAVISVP2,2013-09-22 01:12:00,
2013-09-22 02:17:00,60.5,59.3,30.31,WSW,250,0.0,2.0,96,0.00,,,0.00,0.0,WUHU216DAVISVP2,2013-09-22 01:17:00,
2013-09-22 02:22:00,60.5,59.3,30.31,WSW,250,0.0,2.0,96,0.00,,,0.00,0.0,WUHU216DAVISVP2,2013-09-22 01:22:00,
2013-09-22 02:27:00,60.6,59.4,30.31,WNW,288,0.0,2.0,96,0.00,,,0.00,0.0,WUHU216DAVISVP2,2013-09-22 01:27:00,
2013-09-22 02:32:00,60.6,59.4,30.31,WNW,288,0.0,2.0,96,0.00,,,0.00,0.0,WUHU216DAVISVP2,2013-09-22 01:32:00,
2013-09-22 02:37:00,60.7,59.5,30.31,WSW,258,0.0,2.0,96,0.00,,,0.00,0.0,WUHU216DAVISVP2,2013-09-22 01:37:00,
2013-09-22 02:42:00,60.7,59.2,30.31,WSW,258,0.0,2.0,95,0.00,,,0.00,0.0,WUHU216DAVISVP2,2013-09-22 01:42:00,
2013-09-22 02:47:00,60.7,59.2,30.31,SW,223,0.0,2.0,95,0.00,,,0.00,0.0,WUHU216DAVISVP2,2013-09-22 01:47:00,
2013-09-22 02:52:00,60.8,59.3,30.31,WNW,291,0.0,2.0,95,0.00,,,0.00,0.0,WUHU216DAVISVP2,2013-09-22 01:52:00,
2013-09-22 02:57:00,60.8,59.3,30.31,WSW,250,0.0,1.0,95,0.00,,,0.00,0.0,WUHU216DAVISVP2,2013-09-22 01:57:00,
2013-09-22 03:02:00,60.8,59.3,30.31,WNW,288,0.0,1.0,95,0.00,,,0.00,0.0,WUHU216DAVISVP2,2013-09-22 02:02:00,
2013-09-22 03:07:00,60.9,59.4,30.31,WSW,245,0.0,1.0,95,0.00,,,0.00,0.0,WUHU216DAVISVP2,2013-09-22 02:07:00,
2013-09-22 03:12:00,60.9,59.4,30.31,NNW,327,0.0,1.0,95,0.00,,,0.00,0.0,WUHU216DAVISVP2,2013-09-22 02:12:00,
2013-09-22 03:17:00,60.9,59.4,30.31,SW,233,0.0,1.0,95,0.00,,,0.00,0.0,WUHU216DAVISVP2,2013-09-22 02:17:00,
2013-09-22 03:22:00,60.9,59.4,30.31,SW,229,0.0,1.0,95,0.00,,,0.00,0.0,WUHU216DAVISVP2,2013-09-22 02:22:00,
2013-09-22 03:27:00,60.9,59.4,30.31,West,275,0.0,2.0,95,0.00,,,0.00,0.0,WUHU216DAVISVP2,2013-09-22 02:27:00,
2013-09-22 03:32:00,60.9,59.4,30.31,West,264,0.0,2.0,95,0.00,,,0.00,0.0,WUHU216DAVISVP2,2013-09-22 02:32:00,
2013-09-22 03:37:00,60.9,59.4,30.31,West,264,0.0,2.0,95,0.00,,,0.00,0.0,WUHU216DAVISVP2,2013-09-22 02:37:00,
2013-09-22 03:42:00,60.9,59.4,30.31,West,264,0.0,0.0,95,0.00,,,0.00,0.0,WUHU216DAVISVP2,2013-09-22 02:42:00,
2013-09-22 03:47:00,60.9,59.4,30.31,West,264,0.0,0.0,95,0.00,,,0.00,0.0,WUHU216DAVISVP2,2013-09-22 02:47:00,
2013-09-22 03:52:00,60.9,59.4,30.31,West,280,0.0,1.0,95,0.00,,,0.00,0.0,WUHU216DAVISVP2,2013-09-22 02:52:00,
2013-09-22 03:57:00,60.9,59.4,30.31,SSW,210,0.0,1.0,95,0.00,,,0.00,0.0,WUHU216DAVISVP2,2013-09-22 02:57:00,
2013-09-22 04:02:00,60.9,59.4,30.31,SSW,210,0.0,1.0,95,0.00,,,0.00,0.0,WUHU216DAVISVP2,2013-09-22 03:02:00,
2013-09-22 04:07:00,60.9,59.4,30.31,SSW,210,0.0,1.0,95,0.00,,,0.00,0.0,WUHU216DAVISVP2,2013-09-22 03:07:00,
2013-09-22 04:12:00,60.9,59.4,30.31,SSW,208,0.0,0.0,95,0.00,,,0.00,0.0,WUHU216DAVISVP2,2013-09-22 03:12:00,
2013-09-22 04:17:00,60.9,59.4,30.31,WSW,240,0.0,0.0,95,0.00,,,0.00,0.0,WUHU216DAVISVP2,2013-09-22 03:17:00,
2013-09-22 04:22:00,60.9,59.4,30.31,WSW,242,0.0,0.0,95,0.00,,,0.00,0.0,WUHU216DAVISVP2,2013-09-22 03:22:00,
2013-09-22 04:27:00,60.9,59.4,30.32,WSW,242,0.0,0.0,95,0.00,,,0.00,0.0,WUHU216DAVISVP2,2013-09-22 03:27:00,
2013-09-22 04:32:00,60.9,59.4,30.32,WSW,242,0.0,0.0,95,0.00,,,0.00,0.0,WUHU216DAVISVP2,2013-09-22 03:32:00,
2013-09-22 04:37:00,60.9,59.4,30.32,WSW,242,0.0,0.0,95,0.00,,,0.00,0.0,WUHU216DAVISVP2,2013-09-22 03:37:00,
2013-09-22 04:42:00,60.9,59.4,30.32,WSW,242,0.0,0.0,95,0.00,,,0.00,0.0,WUHU216DAVISVP2,2013-09-22 03:42:00,
2013-09-22 04:47:00,60.9,59.4,30.32,WSW,245,0.0,0.0,95,0.00,,,0.00,0.0,WUHU216DAVISVP2,2013-09-22 03:47:00,
2013-09-22 04:52:00,60.9,59.4,30.31,WSW,253,0.0,0.0,95,0.00,,,0.01,0.0,WUHU216DAVISVP2,2013-09-22 03:52:00,
2013-09-22 04:57:00,60.9,59.4,30.31,WSW,253,0.0,0.0,95,0.00,,,0.01,0.0,WUHU216DAVISVP2,2013-09-22 03:57:00,
2013-09-22 05:01:00,60.9,59.4,30.32,WSW,253,0.0,0.0,95,0.00,,,0.01,0.0,WUHU216DAVISVP2,2013-09-22 04:01:00,
2013-09-22 05:02:00,60.9,59.4,30.31,WSW,253,0.0,0.0,95,0.00,,,0.01,0.0,WUHU216DAVISVP2,2013-09-22 04:02:00,
2013-09-22 05:07:00,60.9,59.4,30.32,WSW,253,0.0,0.0,95,0.00,,,0.01,0.0,WUHU216DAVISVP2,2013-09-22 04:07:00,
2013-09-22 05:12:00,60.9,59.4,30.32,WSW,253,0.0,0.0,95,0.00,,,0.01,0.0,WUHU216DAVISVP2,2013-09-22 04:12:00,
2013-09-22 05:17:00,60.9,59.4,30.32,WSW,252,0.0,0.0,95,0.00,,,0.01,0.0,WUHU216DAVISVP2,2013-09-22 04:17:00,
2013-09-22 05:22:00,60.9,59.4,30.32,WSW,252,0.0,0.0,95,0.00,,,0.01,0.0,WUHU216DAVISVP2,2013-09-22 04:22:00,
2013-09-22 05:27:00,60.9,59.4,30.32,WSW,252,0.0,0.0,95,0.00,,,0.01,0.0,WUHU216DAVISVP2,2013-09-22 04:27:00,
2013-09-22 05:32:00,60.9,59.4,30.32,WSW,252,0.0,0.0,95,0.00,,,0.01,0.0,WUHU216DAVISVP2,2013-09-22 04:32:00,
2013-09-22 05:37:00,60.9,59.4,30.32,WSW,252,0.0,0.0,95,0.00,,,0.01,0.0,WUHU216DAVISVP2,2013-09-22 04:37:00,
2013-09-22 05:42:00,60.9,59.4,30.32,WSW,252,0.0,0.0,95,0.00,,,0.01,0.0,WUHU216DAVISVP2,2013-09-22 04:42:00,
2013-09-22 05:47:00,60.8,59.3,30.32,WSW,252,0.0,0.0,95,0.00,,,0.01,0.0,WUHU216DAVISVP2,2013-09-22 04:47:00,
2013-09-22 05:52:00,60.8,59.3,30.32,WSW,252,0.0,0.0,95,0.00,,,0.01,0.0,WUHU216DAVISVP2,2013-09-22 04:52:00,
2013-09-22 05:57:00,60.8,59.3,30.32,WSW,252,0.0,0.0,95,0.00,,,0.01,0.0,WUHU216DAVISVP2,2013-09-22 04:57:00,
2013-09-22 06:02:00,60.8,59.3,30.32,WSW,252,0.0,0.0,95,0.00,,,0.01,0.0,WUHU216DAVISVP2,2013-09-22 05:02:00,
2013-09-22 06:07:00,60.8,59.3,30.32,WSW,252,0.0,0.0,95,0.00,,,0.01,0.0,WUHU216DAVISVP2,2013-09-22 05:07:00,
2013-09-22 06:12:00,60.8,59.3,30.33,WSW,252,0.0,0.0,95,0.00,,,0.01,0.0,WUHU216DAVISVP2,2013-09-22 05:12:00,
2013-09-22 06:17:00,60.8,59.3,30.33,WSW,252,0.0,0.0,95,0.00,,,0.01,0.0,WUHU216DAVISVP2,2013-09-22 05:17:00,
2013-09-22 06:22:00,60.8,59.3,30.33,WSW,252,0.0,0.0,95,0.00,,,0.01,0.0,WUHU216DAVISVP2,2013-09-22 05:22:00,
2013-09-22 06:27:00,60.8,59.3,30.33,WSW,252,0.0,0.0,95,0.00,,,0.01,0.0,WUHU216DAVISVP2,2013-09-22 05:27:00,
2013-09-22 06:32:00,60.9,59.4,30.33,WSW,252,0.0,0.0,95,0.00,,,0.01,0.0,WUHU216DAVISVP2,2013-09-22 05:32:00,
2013-09-22 06:37:00,60.8,59.3,30.33,WSW,252,0.0,0.0,95,0.00,,,0.01,0.0,WUHU216DAVISVP2,2013-09-22 05:37:00,
2013-09-22 06:42:00,60.9,59.4,30.33,WSW,252,0.0,0.0,95,0.00,,,0.01,0.0,WUHU216DAVISVP2,2013-09-22 05:42:00,
2013-09-22 06:47:00,60.9,59.4,30.33,WSW,252,0.0,0.0,95,0.00,,,0.01,0.0,WUHU216DAVISVP2,2013-09-22 05:47:00,
2013-09-22 06:52:00,60.8,59.3,30.33,WSW,252,0.0,0.0,95,0.00,,,0.01,0.0,WUHU216DAVISVP2,2013-09-22 05:52:00,
2013-09-22 06:57:00,60.8,59.3,30.33,WSW,252,0.0,0.0,95,0.00,,,0.01,0.0,WUHU216DAVISVP2,2013-09-22 05:57:00,
2013-09-22 07:02:00,60.9,59.4,30.34,WSW,252,0.0,0.0,95,0.00,,,0.01,0.0,WUHU216DAVISVP2,2013-09-22 06:02:00,
2013-09-22 07:07:00,60.8,59.3,30.34,WSW,252,0.0,0.0,95,0.00,,,0.01,0.0,WUHU216DAVISVP2,2013-09-22 06:07:00,
2013-09-22 07:12:00,60.9,59.4,30.34,WSW,252,0.0,0.0,95,0.00,,,0.01,0.0,WUHU216DAVISVP2,2013-09-22 06:12:00,
2013-09-22 07:17:00,60.9,59.4,30.34,WSW,252,0.0,0.0,95,0.00,,,0.01,0.0,WUHU216DAVISVP2,2013-09-22 06:17:00,
2013-09-22 07:22:00,60.9,59.4,30.34,WSW,252,0.0,0.0,95,0.00,,,0.01,0.0,WUHU216DAVISVP2,2013-09-22 06:22:00,
2013-09-22 07:27:00,60.8,59.3,30.34,WSW,252,0.0,0.0,95,0.00,,,0.01,5.0,WUHU216DAVISVP2,2013-09-22 06:27:00,
2013-09-22 07:32:00,60.9,59.4,30.34,WSW,252,0.0,0.0,95,0.00,,,0.01,5.0,WUHU216DAVISVP2,2013-09-22 06:32:00,
2013-09-22 07:37:00,60.9,59.4,30.34,WSW,252,0.0,0.0,95,0.00,,,0.01,7.0,WUHU216DAVISVP2,2013-09-22 06:37:00,
2013-09-22 07:42:00,60.9,59.4,30.35,WSW,252,0.0,0.0,95,0.00,,,0.01,7.0,WUHU216DAVISVP2,2013-09-22 06:42:00,
2013-09-22 07:47:00,60.9,59.4,30.34,WSW,252,0.0,0.0,95,0.00,,,0.01,9.0,WUHU216DAVISVP2,2013-09-22 06:47:00,
2013-09-22 07:52:00,60.9,59.4,30.35,WSW,252,0.0,0.0,95,0.00,,,0.01,11.0,WUHU216DAVISVP2,2013-09-22 06:52:00,
2013-09-22 07:57:00,60.9,59.4,30.35,WSW,252,0.0,0.0,95,0.00,,,0.01,11.0,WUHU216DAVISVP2,2013-09-22 06:57:00,
2013-09-22 08:02:00,60.9,59.4,30.35,WSW,252,0.0,0.0,95,0.00,,,0.01,11.0,WUHU216DAVISVP2,2013-09-22 07:02:00,
2013-09-22 08:07:00,60.9,59.4,30.35,WSW,252,0.0,0.0,95,0.00,,,0.01,16.0,WUHU216DAVISVP2,2013-09-22 07:07:00,
2013-09-22 08:12:00,60.9,59.4,30.35,WSW,252,0.0,0.0,95,0.00,,,0.01,18.0,WUHU216DAVISVP2,2013-09-22 07:12:00,
2013-09-22 08:17:00,60.9,59.4,30.35,WSW,252,0.0,0.0,95,0.00,,,0.01,14.0,WUHU216DAVISVP2,2013-09-22 07:17:00,
2013-09-22 08:22:00,61.0,59.5,30.35,WSW,253,0.0,0.0,95,0.00,,,0.01,16.0,WUHU216DAVISVP2,2013-09-22 07:22:00,
2013-09-22 08:27:00,60.9,59.4,30.35,WSW,253,0.0,0.0,95,0.00,,,0.01,16.0,WUHU216DAVISVP2,2013-09-22 07:27:00,
2013-09-22 08:32:00,60.9,59.4,30.35,WSW,253,0.0,0.0,95,0.00,,,0.01,16.0,WUHU216DAVISVP2,2013-09-22 07:32:00,
2013-09-22 08:37:00,60.9,59.4,30.35,WSW,253,0.0,0.0,95,0.00,,,0.01,19.0,WUHU216DAVISVP2,2013-09-22 07:37:00,
2013-09-22 08:42:00,61.0,59.8,30.35,WSW,253,0.0,0.0,96,0.00,,,0.01,23.0,WUHU216DAVISVP2,2013-09-22 07:42:00,
2013-09-22 08:47:00,61.0,59.5,30.36,WSW,253,0.0,0.0,95,0.00,,,0.01,23.0,WUHU216DAVISVP2,2013-09-22 07:47:00,
2013-09-22 08:52:00,61.0,59.5,30.36,WSW,237,0.0,0.0,95,0.00,,,0.01,21.0,WUHU216DAVISVP2,2013-09-22 07:52:00,
2013-09-22 08:57:00,61.0,59.5,30.36,WSW,237,0.0,0.0,95,0.00,,,0.01,21.0,WUHU216DAVISVP2,2013-09-22 07:57:00,
2013-09-22 09:02:00,60.9,59.4,30.36,WSW,237,0.0,0.0,95,0.00,,,0.01,21.0,WUHU216DAVISVP2,2013-09-22 08:02:00,
2013-09-22 09:07:00,60.9,59.4,30.36,WSW,237,0.0,0.0,95,0.00,,,0.01,23.0,WUHU216DAVISVP2,2013-09-22 08:07:00,
2013-09-22 09:12:00,61.0,59.5,30.36,WSW,237,0.0,0.0,95,0.00,,,0.01,26.0,WUHU216DAVISVP2,2013-09-22 08:12:00,
2013-09-22 09:17:00,61.0,59.5,30.36,WSW,237,0.0,0.0,95,0.00,,,0.01,32.0,WUHU216DAVISVP2,2013-09-22 08:17:00,
2013-09-22 09:22:00,61.0,59.5,30.36,WSW,237,0.0,0.0,95,0.00,,,0.01,30.0,WUHU216DAVISVP2,2013-09-22 08:22:00,
2013-09-22 09:27:00,61.1,59.6,30.36,WSW,237,0.0,0.0,95,0.00,,,0.01,30.0,WUHU216DAVISVP2,2013-09-22 08:27:00,
2013-09-22 09:32:00,61.1,59.6,30.37,WSW,237,0.0,0.0,95,0.00,,,0.01,30.0,WUHU216DAVISVP2,2013-09-22 08:32:00,
2013-09-22 09:37:00,61.1,59.6,30.37,WSW,237,0.0,0.0,95,0.00,,,0.01,28.0,WUHU216DAVISVP2,2013-09-22 08:37:00,
2013-09-22 09:42:00,61.2,59.7,30.37,WSW,237,0.0,0.0,95,0.00,,,0.01,33.0,WUHU216DAVISVP2,2013-09-22 08:42:00,
2013-09-22 09:47:00,61.2,59.7,30.37,WSW,237,0.0,0.0,95,0.00,,,0.01,32.0,WUHU216DAVISVP2,2013-09-22 08:47:00,
2013-09-22 09:52:00,61.3,59.8,30.36,WSW,237,0.0,0.0,95,0.00,,,0.01,35.0,WUHU216DAVISVP2,2013-09-22 08:52:00,
2013-09-22 09:57:00,61.3,59.8,30.36,WSW,237,0.0,0.0,95,0.00,,,0.01,46.0,WUHU216DAVISVP2,2013-09-22 08:57:00,
2013-09-22 10:02:00,61.4,59.9,30.36,WSW,237,0.0,0.0,95,0.00,,,0.01,47.0,WUHU216DAVISVP2,2013-09-22 09:02:00,
2013-09-22 10:07:00,61.5,60.0,30.36,WSW,237,0.0,0.0,95,0.00,,,0.01,47.0,WUHU216DAVISVP2,2013-09-22 09:07:00,
2013-09-22 10:12:00,61.5,59.7,30.36,WSW,248,0.0,0.0,94,0.00,,,0.01,69.0,WUHU216DAVISVP2,2013-09-22 09:12:00,
2013-09-22 10:17:00,61.6,59.5,30.36,WSW,248,0.0,0.0,93,0.00,,,0.01,53.0,WUHU216DAVISVP2,2013-09-22 09:17:00,
2013-09-22 10:22:00,61.6,59.5,30.36,WSW,240,0.0,0.0,93,0.00,,,0.01,51.0,WUHU216DAVISVP2,2013-09-22 09:22:00,
2013-09-22 10:27:00,61.7,59.6,30.36,SE,134,0.0,1.0,93,0.00,,,0.01,47.0,WUHU216DAVISVP2,2013-09-22 09:27:00,
2013-09-22 10:32:00,61.8,59.7,30.36,SSW,192,0.0,2.0,93,0.00,,,0.01,46.0,WUHU216DAVISVP2,2013-09-22 09:32:00,
2013-09-22 10:37:00,61.9,59.8,30.36,SW,216,0.0,2.0,93,0.00,,,0.01,46.0,WUHU216DAVISVP2,2013-09-22 09:37:00,
2013-09-22 10:42:00,61.9,59.5,30.36,SW,216,0.0,2.0,92,0.00,,,0.01,47.0,WUHU216DAVISVP2,2013-09-22 09:42:00,
2013-09-22 10:47:00,62.0,59.6,30.36,SW,216,0.0,2.0,92,0.00,,,0.01,51.0,WUHU216DAVISVP2,2013-09-22 09:47:00,
2013-09-22 10:52:00,62.1,59.7,30.36,SW,216,0.0,0.0,92,0.00,,,0.01,53.0,WUHU216DAVISVP2,2013-09-22 09:52:00,
2013-09-22 10:57:00,62.2,59.8,30.37,SW,216,0.0,0.0,92,0.00,,,0.01,69.0,WUHU216DAVISVP2,2013-09-22 09:57:00,
2013-09-22 11:02:00,62.3,59.9,30.37,SW,216,0.0,0.0,92,0.00,,,0.01,69.0,WUHU216DAVISVP2,2013-09-22 10:02:00,
2013-09-22 11:07:00,62.4,60.0,30.37,SW,216,0.0,0.0,92,0.00,,,0.01,72.0,WUHU216DAVISVP2,2013-09-22 10:07:00,
2013-09-22 11:12:00,62.6,60.2,30.37,SW,216,0.0,0.0,92,0.00,,,0.01,74.0,WUHU216DAVISVP2,2013-09-22 10:12:00,
2013-09-22 11:17:00,62.8,59.8,30.37,SW,216,0.0,0.0,90,0.00,,,0.01,69.0,WUHU216DAVISVP2,2013-09-22 10:17:00,
2013-09-22 11:22:00,62.9,60.2,30.37,SW,216,0.0,0.0,91,0.00,,,0.01,83.0,WUHU216DAVISVP2,2013-09-22 10:22:00,
2013-09-22 11:27:00,63.1,60.4,30.36,SW,216,0.0,0.0,91,0.00,,,0.01,91.0,WUHU216DAVISVP2,2013-09-22 10:27:00,
2013-09-22 11:32:00,63.3,60.0,30.37,SW,216,0.0,0.0,89,0.00,,,0.01,86.0,WUHU216DAVISVP2,2013-09-22 10:32:00,
2013-09-22 11:37:00,63.6,60.3,30.37,SW,216,0.0,0.0,89,0.00,,,0.01,79.0,WUHU216DAVISVP2,2013-09-22 10:37:00,
2013-09-22 11:42:00,63.7,60.1,30.36,NNW,328,0.0,1.0,88,0.00,,,0.01,70.0,WUHU216DAVISVP2,2013-09-22 10:42:00,
2013-09-22 11:47:00,63.8,60.2,30.36,NNW,329,0.0,1.0,88,0.00,,,0.01,72.0,WUHU216DAVISVP2,2013-09-22 10:47:00,
2013-09-22 11:52:00,64.0,60.7,30.37,NNW,329,0.0,1.0,89,0.00,,,0.01,79.0,WUHU216DAVISVP2,2013-09-22 10:52:00,
2013-09-22 11:57:00,64.0,60.4,30.36,NNW,329,0.0,1.0,88,0.00,,,0.01,107.0,WUHU216DAVISVP2,2013-09-22 10:57:00,
2013-09-22 12:02:00,64.2,60.9,30.37,NNW,329,0.0,1.0,89,0.00,,,0.01,98.0,WUHU216DAVISVP2,2013-09-22 11:02:00,
2013-09-22 12:07:00,64.5,61.2,30.36,NNW,329,0.0,0.0,89,0.00,,,0.01,90.0,WUHU216DAVISVP2,2013-09-22 11:07:00,
2013-09-22 12:12:00,64.6,60.6,30.37,NNW,329,0.0,1.0,87,0.00,,,0.01,69.0,WUHU216DAVISVP2,2013-09-22 11:12:00,
2013-09-22 12:17:00,64.6,60.6,30.36,NNW,329,0.0,1.0,87,0.00,,,0.01,84.0,WUHU216DAVISVP2,2013-09-22 11:17:00,
2013-09-22 12:22:00,64.7,61.1,30.36,NNW,329,0.0,1.0,88,0.00,,,0.01,91.0,WUHU216DAVISVP2,2013-09-22 11:22:00,
2013-09-22 12:27:00,64.8,60.8,30.36,NNW,330,0.0,2.0,87,0.00,,,0.01,81.0,WUHU216DAVISVP2,2013-09-22 11:27:00,
2013-09-22 12:32:00,64.9,60.6,30.36,NNW,341,0.0,2.0,86,0.00,,,0.01,86.0,WUHU216DAVISVP2,2013-09-22 11:32:00,
2013-09-22 12:37:00,64.9,60.6,30.36,NNW,341,0.0,2.0,86,0.00,,,0.01,84.0,WUHU216DAVISVP2,2013-09-22 11:37:00,
2013-09-22 12:42:00,65.0,60.7,30.36,NNW,343,0.0,2.0,86,0.00,,,0.01,90.0,WUHU216DAVISVP2,2013-09-22 11:42:00,
2013-09-22 12:47:00,65.1,60.8,30.36,NNW,343,0.0,1.0,86,0.00,,,0.01,88.0,WUHU216DAVISVP2,2013-09-22 11:47:00,
2013-09-22 12:52:00,65.2,60.6,30.36,NNW,343,0.0,1.0,85,0.00,,,0.01,83.0,WUHU216DAVISVP2,2013-09-22 11:52:00,
2013-09-22 12:57:00,65.3,60.7,30.36,NNW,343,0.0,1.0,85,0.00,,,0.01,72.0,WUHU216DAVISVP2,2013-09-22 11:57:00,
2013-09-22 13:02:00,65.3,61.0,30.36,WSW,245,0.0,1.0,86,0.00,,,0.01,65.0,WUHU216DAVISVP2,2013-09-22 12:02:00,
2013-09-22 13:07:00,65.4,61.1,30.36,WSW,245,0.0,1.0,86,0.00,,,0.01,67.0,WUHU216DAVISVP2,2013-09-22 12:07:00,
2013-09-22 13:12:00,65.5,60.9,30.36,WNW,297,0.0,1.0,85,0.00,,,0.01,79.0,WUHU216DAVISVP2,2013-09-22 12:12:00,
2013-09-22 13:17:00,65.5,60.9,30.36,North,360,0.0,1.0,85,0.00,,,0.01,98.0,WUHU216DAVISVP2,2013-09-22 12:17:00,
2013-09-22 13:22:00,65.6,61.0,30.36,NNW,337,0.0,1.0,85,0.00,,,0.01,111.0,WUHU216DAVISVP2,2013-09-22 12:22:00,
2013-09-22 13:27:00,65.8,61.5,30.36,SSW,210,0.0,1.0,86,0.00,,,0.01,109.0,WUHU216DAVISVP2,2013-09-22 12:27:00,
2013-09-22 13:32:00,65.9,61.0,30.36,NW,326,0.0,2.0,84,0.00,,,0.01,88.0,WUHU216DAVISVP2,2013-09-22 12:32:00,
2013-09-22 13:37:00,65.9,61.0,30.36,WNW,302,0.0,2.0,84,0.00,,,0.01,79.0,WUHU216DAVISVP2,2013-09-22 12:37:00,
2013-09-22 13:42:00,66.0,61.1,30.36,North,360,0.0,2.0,84,0.00,,,0.01,100.0,WUHU216DAVISVP2,2013-09-22 12:42:00,
2013-09-22 13:47:00,66.0,61.1,30.35,North,352,0.0,3.0,84,0.00,,,0.01,100.0,WUHU216DAVISVP2,2013-09-22 12:47:00,
2013-09-22 13:52:00,66.1,61.2,30.35,North,356,0.0,3.0,84,0.00,,,0.01,104.0,WUHU216DAVISVP2,2013-09-22 12:52:00,
2013-09-22 13:57:00,66.2,61.3,30.35,North,8,0.0,3.0,84,0.00,,,0.01,97.0,WUHU216DAVISVP2,2013-09-22 12:57:00,
2013-09-22 14:02:00,66.2,60.9,30.35,NNW,346,0.0,3.0,83,0.00,,,0.01,90.0,WUHU216DAVISVP2,2013-09-22 13:02:00,
2013-09-22 14:07:00,66.3,61.3,30.35,North,1,0.0,2.0,84,0.00,,,0.01,100.0,WUHU216DAVISVP2,2013-09-22 13:07:00,
2013-09-22 14:12:00,66.3,61.0,30.35,North,359,0.0,4.0,83,0.00,,,0.01,134.0,WUHU216DAVISVP2,2013-09-22 13:12:00,
2013-09-22 14:17:00,66.3,61.0,30.35,North,360,0.0,4.0,83,0.00,,,0.01,125.0,WUHU216DAVISVP2,2013-09-22 13:17:00,
2013-09-22 14:22:00,66.4,61.1,30.35,North,1,0.0,4.0,83,0.00,,,0.01,88.0,WUHU216DAVISVP2,2013-09-22 13:22:00,
2013-09-22 14:27:00,66.4,60.8,30.35,North,359,1.0,4.0,82,0.00,,,0.01,74.0,WUHU216DAVISVP2,2013-09-22 13:27:00,
2013-09-22 14:32:00,66.5,61.2,30.35,North,360,0.0,4.0,83,0.00,,,0.01,76.0,WUHU216DAVISVP2,2013-09-22 13:32:00,
2013-09-22 14:37:00,66.4,60.8,30.34,NNW,333,0.0,4.0,82,0.00,,,0.01,88.0,WUHU216DAVISVP2,2013-09-22 13:37:00,
2013-09-22 14:42:00,66.5,61.5,30.34,ESE,110,0.0,4.0,84,0.00,,,0.01,142.0,WUHU216DAVISVP2,2013-09-22 13:42:00,
2013-09-22 14:47:00,66.7,61.1,30.35,North,355,0.0,4.0,82,0.00,,,0.01,234.0,WUHU216DAVISVP2,2013-09-22 13:47:00,
2013-09-22 14:52:00,66.9,60.9,30.35,WSW,243,0.0,4.0,81,0.00,,,0.01,111.0,WUHU216DAVISVP2,2013-09-22 13:52:00,
2013-09-22 14:57:00,67.0,61.4,30.34,North,352,0.0,4.0,82,0.00,,,0.01,91.0,WUHU216DAVISVP2,2013-09-22 13:57:00,
2013-09-22 15:02:00,67.1,60.8,30.34,NNW,347,0.0,4.0,80,0.00,,,0.01,93.0,WUHU216DAVISVP2,2013-09-22 14:02:00,
2013-09-22 15:07:00,67.1,60.8,30.34,NNW,331,0.0,5.0,80,0.00,,,0.01,104.0,WUHU216DAVISVP2,2013-09-22 14:07:00,
2013-09-22 15:12:00,66.8,60.8,30.34,NNW,337,0.0,5.0,81,0.00,,,0.01,109.0,WUHU216DAVISVP2,2013-09-22 14:12:00,
2013-09-22 15:17:00,66.8,60.8,30.34,NNW,347,0.0,5.0,81,0.00,,,0.01,100.0,WUHU216DAVISVP2,2013-09-22 14:17:00,
2013-09-22 15:22:00,66.8,60.8,30.34,North,359,0.0,5.0,81,0.00,,,0.01,74.0,WUHU216DAVISVP2,2013-09-22 14:22:00,
2013-09-22 15:27:00,66.8,60.8,30.35,North,4,0.0,2.0,81,0.00,,,0.01,77.0,WUHU216DAVISVP2,2013-09-22 14:27:00,
2013-09-22 15:32:00,66.7,60.4,30.35,North,4,0.0,1.0,80,0.00,,,0.01,60.0,WUHU216DAVISVP2,2013-09-22 14:32:00,
2013-09-22 15:37:00,66.7,60.7,30.35,North,4,0.0,1.0,81,0.00,,,0.01,70.0,WUHU216DAVISVP2,2013-09-22 14:37:00,
2013-09-22 15:42:00,66.6,60.6,30.34,WNW,299,0.0,1.0,81,0.00,,,0.01,76.0,WUHU216DAVISVP2,2013-09-22 14:42:00,
2013-09-22 15:47:00,66.7,60.7,30.34,WNW,300,0.0,1.0,81,0.00,,,0.01,84.0,WUHU216DAVISVP2,2013-09-22 14:47:00,
2013-09-22 15:52:00,66.8,60.5,30.34,WNW,286,0.0,1.0,80,0.00,,,0.01,76.0,WUHU216DAVISVP2,2013-09-22 14:52:00,
2013-09-22 15:57:00,67.0,61.0,30.34,WNW,286,0.0,1.0,81,0.00,,,0.01,76.0,WUHU216DAVISVP2,2013-09-22 14:57:00,
2013-09-22 16:02:00,67.1,61.5,30.34,WNW,286,0.0,1.0,82,0.00,,,0.01,65.0,WUHU216DAVISVP2,2013-09-22 15:02:00,
2013-09-22 16:07:00,67.1,61.1,30.34,WNW,295,0.0,0.0,81,0.00,,,0.01,70.0,WUHU216DAVISVP2,2013-09-22 15:07:00,
2013-09-22 16:12:00,67.2,61.2,30.33,WNW,295,0.0,1.0,81,0.00,,,0.01,63.0,WUHU216DAVISVP2,2013-09-22 15:12:00,
2013-09-22 16:17:00,67.2,61.2,30.33,WNW,296,0.0,1.0,81,0.00,,,0.01,109.0,WUHU216DAVISVP2,2013-09-22 15:17:00,
2013-09-22 16:22:00,67.5,61.8,30.33,WNW,296,0.0,1.0,82,0.00,,,0.01,167.0,WUHU216DAVISVP2,2013-09-22 15:22:00,
2013-09-22 16:27:00,67.9,61.9,30.33,WNW,297,0.0,1.0,81,0.00,,,0.01,105.0,WUHU216DAVISVP2,2013-09-22 15:27:00,
2013-09-22 16:32:00,68.0,61.7,30.33,NNW,341,0.0,1.0,80,0.00,,,0.01,69.0,WUHU216DAVISVP2,2013-09-22 15:32:00,
2013-09-22 16:37:00,67.9,61.2,30.33,North,356,0.0,1.0,79,0.00,,,0.01,69.0,WUHU216DAVISVP2,2013-09-22 15:37:00,
2013-09-22 16:42:00,67.9,61.6,30.33,North,356,0.0,1.0,80,0.00,,,0.01,60.0,WUHU216DAVISVP2,2013-09-22 15:42:00,
2013-09-22 16:47:00,67.9,61.9,30.33,North,356,0.0,1.0,81,0.00,,,0.01,51.0,WUHU216DAVISVP2,2013-09-22 15:47:00,
2013-09-22 16:52:00,67.9,61.9,30.33,North,356,0.0,1.0,81,0.00,,,0.01,51.0,WUHU216DAVISVP2,2013-09-22 15:52:00,
2013-09-22 16:57:00,67.9,61.2,30.33,North,356,0.0,0.0,79,0.00,,,0.01,47.0,WUHU216DAVISVP2,2013-09-22 15:57:00,
2013-09-22 17:02:00,67.9,61.1,30.33,North,356,0.0,0.0,79,0.00,,,0.01,44.0,WUHU216DAVISVP2,2013-09-22 16:02:00,
2013-09-22 17:07:00,67.9,60.9,30.33,North,356,0.0,1.0,78,0.00,,,0.01,56.0,WUHU216DAVISVP2,2013-09-22 16:07:00,
2013-09-22 17:12:00,67.9,60.9,30.33,North,356,0.0,1.0,78,0.00,,,0.01,62.0,WUHU216DAVISVP2,2013-09-22 16:12:00,
2013-09-22 17:17:00,67.9,61.2,30.33,North,356,0.0,1.0,79,0.00,,,0.01,40.0,WUHU216DAVISVP2,2013-09-22 16:17:00,
2013-09-22 17:22:00,67.9,61.6,30.33,North,356,0.0,1.0,80,0.00,,,0.01,33.0,WUHU216DAVISVP2,2013-09-22 16:22:00,
2013-09-22 17:27:00,67.9,61.2,30.33,North,356,0.0,0.0,79,0.00,,,0.01,37.0,WUHU216DAVISVP2,2013-09-22 16:27:00,
2013-09-22 17:32:00,67.9,61.9,30.33,North,356,0.0,0.0,81,0.00,,,0.01,39.0,WUHU216DAVISVP2,2013-09-22 16:32:00,
2013-09-22 17:37:00,67.8,61.5,30.33,North,356,0.0,1.0,80,0.00,,,0.01,33.0,WUHU216DAVISVP2,2013-09-22 16:37:00,
2013-09-22 17:42:00,67.8,61.5,30.33,North,356,0.0,1.0,80,0.00,,,0.01,35.0,WUHU216DAVISVP2,2013-09-22 16:42:00,
2013-09-22 17:47:00,67.7,61.4,30.33,North,356,0.0,1.0,80,0.00,,,0.01,23.0,WUHU216DAVISVP2,2013-09-22 16:47:00,
2013-09-22 17:52:00,67.6,61.6,30.33,North,356,0.0,1.0,81,0.00,,,0.01,21.0,WUHU216DAVISVP2,2013-09-22 16:52:00,
2013-09-22 17:57:00,67.5,61.5,30.33,NNE,18,0.0,1.0,81,0.00,,,0.01,19.0,WUHU216DAVISVP2,2013-09-22 16:57:00,
2013-09-22 18:02:00,67.3,61.3,30.33,NNE,18,0.0,1.0,81,0.00,,,0.01,14.0,WUHU216DAVISVP2,2013-09-22 17:02:00,
2013-09-22 18:07:00,67.1,61.5,30.33,NNE,18,0.0,1.0,82,0.00,,,0.01,16.0,WUHU216DAVISVP2,2013-09-22 17:07:00,
2013-09-22 18:12:00,66.9,61.3,30.33,NNE,18,0.0,1.0,82,0.00,,,0.01,14.0,WUHU216DAVISVP2,2013-09-22 17:12:00,
2013-09-22 18:17:00,66.7,61.0,30.33,NNE,14,0.0,1.0,82,0.00,,,0.01,14.0,WUHU216DAVISVP2,2013-09-22 17:17:00,
2013-09-22 18:23:00,66.5,61.2,30.33,NNE,14,0.0,1.0,83,0.00,,,0.01,14.0,WUHU216DAVISVP2,2013-09-22 17:23:00,
2013-09-22 18:28:00,66.4,61.1,30.33,NNE,14,0.0,1.0,83,0.00,,,0.01,12.0,WUHU216DAVISVP2,2013-09-22 17:28:00,
2013-09-22 18:33:00,66.3,61.0,30.33,NNE,14,0.0,1.0,83,0.00,,,0.01,9.0,WUHU216DAVISVP2,2013-09-22 17:33:00,
2013-09-22 18:38:00,66.1,60.8,30.32,NNE,14,0.0,1.0,83,0.00,,,0.01,11.0,WUHU216DAVISVP2,2013-09-22 17:38:00,
2013-09-22 18:43:00,66.0,61.1,30.32,NNE,14,0.0,1.0,84,0.00,,,0.01,5.0,WUHU216DAVISVP2,2013-09-22 17:43:00,
2013-09-22 18:48:00,65.9,61.0,30.32,NNE,14,0.0,1.0,84,0.00,,,0.01,0.0,WUHU216DAVISVP2,2013-09-22 17:48:00,
2013-09-22 18:53:00,65.6,60.7,30.32,NNE,14,0.0,1.0,84,0.00,,,0.01,0.0,WUHU216DAVISVP2,2013-09-22 17:53:00,
2013-09-22 18:58:00,65.4,60.4,30.32,NNE,14,0.0,0.0,84,0.00,,,0.01,0.0,WUHU216DAVISVP2,2013-09-22 17:58:00,
2013-09-22 19:03:00,65.2,60.3,30.32,NNE,14,0.0,0.0,84,0.00,,,0.01,0.0,WUHU216DAVISVP2,2013-09-22 18:03:00,
2013-09-22 19:08:00,64.9,60.0,30.32,NNE,14,0.0,0.0,84,0.00,,,0.01,0.0,WUHU216DAVISVP2,2013-09-22 18:08:00,
2013-09-22 19:13:00,64.7,60.1,30.32,NNE,14,0.0,0.0,85,0.00,,,0.01,0.0,WUHU216DAVISVP2,2013-09-22 18:13:00,
2013-09-22 19:18:00,64.5,59.9,30.32,NNE,14,0.0,0.0,85,0.00,,,0.01,0.0,WUHU216DAVISVP2,2013-09-22 18:18:00,
2013-09-22 19:23:00,64.2,59.6,30.33,NNE,14,0.0,0.0,85,0.00,,,0.01,0.0,WUHU216DAVISVP2,2013-09-22 18:23:00,
2013-09-22 19:28:00,64.0,59.4,30.33,NNE,14,0.0,0.0,85,0.00,,,0.01,0.0,WUHU216DAVISVP2,2013-09-22 18:28:00,
2013-09-22 19:32:00,63.7,59.1,30.33,NNE,14,0.0,0.0,85,0.00,,,0.01,0.0,WUHU216DAVISVP2,2013-09-22 18:32:00,
2013-09-22 19:38:00,63.4,58.8,30.33,NNE,14,0.0,0.0,85,0.00,,,0.01,0.0,WUHU216DAVISVP2,2013-09-22 18:38:00,
2013-09-22 19:43:00,63.1,58.8,30.33,NNE,14,0.0,0.0,86,0.00,,,0.01,0.0,WUHU216DAVISVP2,2013-09-22 18:43:00,
2013-09-22 19:48:00,62.9,58.7,30.33,NNE,14,0.0,0.0,86,0.00,,,0.01,0.0,WUHU216DAVISVP2,2013-09-22 18:48:00,
2013-09-22 19:53:00,62.6,58.7,30.33,NNE,14,0.0,0.0,87,0.00,,,0.01,0.0,WUHU216DAVISVP2,2013-09-22 18:53:00,
2013-09-22 19:58:00,62.4,58.5,30.33,NNE,14,0.0,0.0,87,0.00,,,0.01,0.0,WUHU216DAVISVP2,2013-09-22 18:58:00,
2013-09-22 20:03:00,62.1,58.2,30.33,NNE,14,0.0,0.0,87,0.00,,,0.01,0.0,WUHU216DAVISVP2,2013-09-22 19:03:00,
2013-09-22 20:08:00,61.9,58.0,30.33,NNE,14,0.0,0.0,87,0.00,,,0.01,0.0,WUHU216DAVISVP2,2013-09-22 19:08:00,
2013-09-22 20:13:00,61.7,57.8,30.33,NNE,14,0.0,0.0,87,0.00,,,0.01,0.0,WUHU216DAVISVP2,2013-09-22 19:13:00,
2013-09-22 20:18:00,61.4,57.8,30.33,NNE,14,0.0,0.0,88,0.00,,,0.01,0.0,WUHU216DAVISVP2,2013-09-22 19:18:00,
2013-09-22 20:23:00,61.2,57.3,30.33,NNE,14,0.0,0.0,87,0.00,,,0.01,0.0,WUHU216DAVISVP2,2013-09-22 19:23:00,
2013-09-22 20:28:00,61.0,57.4,30.33,NNE,14,0.0,0.0,88,0.00,,,0.01,0.0,WUHU216DAVISVP2,2013-09-22 19:28:00,
2013-09-22 20:33:00,60.8,57.2,30.33,NNE,14,0.0,0.0,88,0.00,,,0.01,0.0,WUHU216DAVISVP2,2013-09-22 19:33:00,
2013-09-22 20:38:00,60.6,57.0,30.33,NNE,14,0.0,0.0,88,0.00,,,0.01,0.0,WUHU216DAVISVP2,2013-09-22 19:38:00,
2013-09-22 20:43:00,60.3,56.7,30.33,NNE,14,0.0,0.0,88,0.00,,,0.01,0.0,WUHU216DAVISVP2,2013-09-22 19:43:00,
2013-09-22 20:48:00,60.1,56.8,30.33,NNE,14,0.0,0.0,89,0.00,,,0.01,0.0,WUHU216DAVISVP2,2013-09-22 19:48:00,
2013-09-22 20:53:00,60.0,56.7,30.33,NNE,14,0.0,0.0,89,0.00,,,0.01,0.0,WUHU216DAVISVP2,2013-09-22 19:53:00,
2013-09-22 20:58:00,59.8,56.5,30.33,NNE,14,0.0,0.0,89,0.00,,,0.01,0.0,WUHU216DAVISVP2,2013-09-22 19:58:00,
2013-09-22 21:03:00,59.6,56.3,30.33,NNE,14,0.0,0.0,89,0.00,,,0.01,0.0,WUHU216DAVISVP2,2013-09-22 20:03:00,
2013-09-22 21:08:00,59.4,56.1,30.33,NNE,14,0.0,0.0,89,0.00,,,0.01,0.0,WUHU216DAVISVP2,2013-09-22 20:08:00,
2013-09-22 21:13:00,59.2,56.2,30.33,NNE,14,0.0,0.0,90,0.00,,,0.01,0.0,WUHU216DAVISVP2,2013-09-22 20:13:00,
2013-09-22 21:18:00,59.1,56.1,30.33,NNE,14,0.0,0.0,90,0.00,,,0.01,0.0,WUHU216DAVISVP2,2013-09-22 20:18:00,
2013-09-22 21:23:00,58.9,55.9,30.33,NNE,14,0.0,0.0,90,0.00,,,0.01,0.0,WUHU216DAVISVP2,2013-09-22 20:23:00,
2013-09-22 21:28:00,58.7,55.7,30.33,NNE,14,0.0,0.0,90,0.00,,,0.01,0.0,WUHU216DAVISVP2,2013-09-22 20:28:00,
2013-09-22 21:33:00,58.6,55.6,30.33,NNE,14,0.0,0.0,90,0.00,,,0.01,0.0,WUHU216DAVISVP2,2013-09-22 20:33:00,
2013-09-22 21:38:00,58.5,55.5,30.33,NNE,14,0.0,0.0,90,0.00,,,0.01,0.0,WUHU216DAVISVP2,2013-09-22 20:38:00,
2013-09-22 21:43:00,58.3,55.3,30.33,NNE,14,0.0,0.0,90,0.00,,,0.01,0.0,WUHU216DAVISVP2,2013-09-22 20:43:00,
2013-09-22 21:48:00,58.2,55.3,30.33,NNE,14,0.0,0.0,90,0.00,,,0.01,0.0,WUHU216DAVISVP2,2013-09-22 20:48:00,
2013-09-22 21:53:00,58.0,55.4,30.33,NNE,14,0.0,0.0,91,0.00,,,0.01,0.0,WUHU216DAVISVP2,2013-09-22 20:53:00,
2013-09-22 21:58:00,57.9,55.3,30.33,NNE,14,0.0,0.0,91,0.00,,,0.01,0.0,WUHU216DAVISVP2,2013-09-22 20:58:00,
2013-09-22 22:03:00,57.7,55.1,30.33,NNE,14,0.0,0.0,91,0.00,,,0.01,0.0,WUHU216DAVISVP2,2013-09-22 21:03:00,
2013-09-22 22:08:00,57.6,55.0,30.33,NNE,14,0.0,0.0,91,0.00,,,0.01,0.0,WUHU216DAVISVP2,2013-09-22 21:08:00,
2013-09-22 22:13:00,57.5,54.9,30.33,NNE,14,0.0,0.0,91,0.00,,,0.01,0.0,WUHU216DAVISVP2,2013-09-22 21:13:00,
2013-09-22 22:18:00,57.3,54.7,30.33,NNE,14,0.0,0.0,91,0.00,,,0.01,0.0,WUHU216DAVISVP2,2013-09-22 21:18:00,
2013-09-22 22:23:00,57.2,54.6,30.33,NNE,14,0.0,0.0,91,0.00,,,0.01,0.0,WUHU216DAVISVP2,2013-09-22 21:23:00,
2013-09-22 22:28:00,57.1,54.5,30.33,NNE,14,0.0,0.0,91,0.00,,,0.01,0.0,WUHU216DAVISVP2,2013-09-22 21:28:00,
2013-09-22 22:33:00,56.9,54.6,30.33,NNE,14,0.0,0.0,92,0.00,,,0.01,0.0,WUHU216DAVISVP2,2013-09-22 21:33:00,
2013-09-22 22:38:00,56.8,54.5,30.33,NNE,14,0.0,0.0,92,0.00,,,0.01,0.0,WUHU216DAVISVP2,2013-09-22 21:38:00,
2013-09-22 22:43:00,56.6,54.3,30.33,NNE,14,0.0,0.0,92,0.00,,,0.01,0.0,WUHU216DAVISVP2,2013-09-22 21:43:00,
2013-09-22 22:48:00,56.6,54.3,30.33,NNE,14,0.0,0.0,92,0.00,,,0.01,0.0,WUHU216DAVISVP2,2013-09-22 21:48:00,
2013-09-22 22:53:00,56.4,54.1,30.33,NNE,14,0.0,0.0,92,0.00,,,0.01,0.0,WUHU216DAVISVP2,2013-09-22 21:53:00,
2013-09-22 22:58:00,56.3,54.0,30.33,NNE,14,0.0,0.0,92,0.00,,,0.01,0.0,WUHU216DAVISVP2,2013-09-22 21:58:00,
2013-09-22 23:03:00,56.2,53.9,30.33,NNE,14,0.0,0.0,92,0.00,,,0.01,0.0,WUHU216DAVISVP2,2013-09-22 22:03:00,
2013-09-22 23:08:00,56.1,53.8,30.33,NNE,14,0.0,0.0,92,0.00,,,0.01,0.0,WUHU216DAVISVP2,2013-09-22 22:08:00,
2013-09-22 23:13:00,56.0,53.7,30.33,NNE,14,0.0,0.0,92,0.00,,,0.01,0.0,WUHU216DAVISVP2,2013-09-22 22:13:00,
2013-09-22 23:18:00,55.8,53.5,30.33,NNE,14,0.0,0.0,92,0.00,,,0.01,0.0,WUHU216DAVISVP2,2013-09-22 22:18:00,
2013-09-22 23:23:00,55.7,53.4,30.33,NNE,14,0.0,0.0,92,0.00,,,0.01,0.0,WUHU216DAVISVP2,2013-09-22 22:23:00,
2013-09-22 23:28:00,55.6,53.3,30.33,NNE,14,0.0,0.0,92,0.00,,,0.01,0.0,WUHU216DAVISVP2,2013-09-22 22:28:00,
2013-09-22 23:33:00,55.5,53.2,30.33,NNE,14,0.0,0.0,92,0.00,,,0.01,0.0,WUHU216DAVISVP2,2013-09-22 22:33:00,
2013-09-22 23:38:00,55.4,53.4,30.33,NNE,14,0.0,0.0,93,0.00,,,0.01,0.0,WUHU216DAVISVP2,2013-09-22 22:38:00,
2013-09-22 23:43:00,55.3,53.3,30.33,NNE,14,0.0,0.0,93,0.00,,,0.01,0.0,WUHU216DAVISVP2,2013-09-22 22:43:00,
2013-09-22 23:48:00,55.2,53.2,30.33,NNE,14,0.0,0.0,93,0.00,,,0.01,0.0,WUHU216DAVISVP2,2013-09-22 22:48:00,
2013-09-22 23:53:00,55.1,53.1,30.33,NNE,14,0.0,0.0,93,0.00,,,0.01,0.0,WUHU216DAVISVP2,2013-09-22 22:53:00,
2013-09-22 23:58:00,55.0,53.0,30.33,NNE,14,0.0,0.0,93,0.00,,,0.01,0.0,WUHU216DAVISVP2,2013-09-22 22:58:00,